1 Minute Report
Date Time Wind Direction Wind Speed Wind Gust Wind Variable Altimeter Temperature Dewpoint Relative Humidity Visibility Ceiling Precip Present Weather Density Alt Wind Chill Heat Index
18/10/2013:0028008N/AN/A30.3932(F), 0(C)30(F), -1(C)93%10CLRN/AN/AN/A25 FN/A8709
18/10/2012:5528009N/AN/A30.3832(F), 0(C)30(F), -1(C)93%10CLRN/AN/AN/A24 FN/A8704
18/10/2012:5028008N/AN/A30.3832(F), 0(C)30(F), -1(C)93%10CLRN/AN/AN/A25 FN/A8699
18/10/2012:4528008N/AN/A30.3832(F), 0(C)30(F), -1(C)93%10CLRN/AN/AN/A25 FN/A8694
18/10/2012:4028008N/AN/A30.3932(F), 0(C)30(F), -1(C)93%10CLRN/AN/AN/A25 FN/A8689
18/10/2012:3527007N/AN/A30.3932(F), 0(C)30(F), -1(C)93%10CLRN/AN/AN/A25 FN/A8684
18/10/2012:3028007N/AN/A30.3832(F), 0(C)30(F), -1(C)93%10CLRN/AN/AN/A25 FN/A8679
18/10/2012:2528007N/AN/A30.3832(F), 0(C)30(F), -1(C)93%10CLRN/AN/AN/A25 FN/A8674
18/10/2012:2028008N/AN/A30.3832(F), 0(C)30(F), -1(C)93%10CLRN/AN/AN/A25 FN/A8669
18/10/2012:1528008N/AN/A30.3832(F), 0(C)30(F), -1(C)93%10CLRN/AN/AN/A25 FN/A8664
18/10/2012:1028008N/AN/A30.3832(F), 0(C)30(F), -1(C)93%10CLRN/AN/AN/A25 FN/A8659
18/10/2012:0528008N/AN/A30.3832(F), 0(C)30(F), -1(C)93%10CLRN/AN/AN/A25 FN/A8654
18/10/2012:0028008N/AN/A30.3832(F), 0(C)30(F), -1(C)93%10CLRN/AN/AN/A25 FN/A8649
18/10/2011:5528008N/AN/A30.3733(F), 1(C)30(F), -1(C)86%10CLRN/AN/AN/A26 FN/A8644
18/10/2011:5028009N/AN/A30.3733(F), 1(C)30(F), -1(C)86%10CLRN/AN/AN/A25 FN/A8639
18/10/2011:4528008N/AN/A30.3733(F), 1(C)30(F), -1(C)86%10CLRN/AN/AN/A26 FN/A8634
18/10/2011:4028009N/AN/A30.3733(F), 1(C)31(F), -1(C)86%10CLRN/AN/AN/A25 FN/A8629
18/10/2011:3528009N/AN/A30.3733(F), 1(C)31(F), -1(C)86%10CLRN/AN/AN/A25 FN/A8624
18/10/2011:3028008N/AN/A30.3732(F), 0(C)30(F), -1(C)93%10CLRN/AN/AN/A25 FN/A8619
18/10/2011:2528008N/AN/A30.3732(F), 0(C)30(F), -1(C)93%10CLRN/AN/AN/A25 FN/A8614
18/10/2011:2028007N/AN/A30.3732(F), 0(C)30(F), -1(C)93%10CLRN/AN/AN/A25 FN/A8609
18/10/2011:1527007N/AN/A30.3732(F), 0(C)30(F), -1(C)93%10CLRN/AN/AN/A25 FN/A8604
18/10/2011:1028007N/AN/A30.3732(F), 0(C)30(F), -1(C)93%10CLRN/AN/AN/A25 FN/A8599
18/10/2011:0527008N/AN/A30.3632(F), 0(C)30(F), -1(C)93%10CLRN/AN/AN/A25 FN/A8594
18/10/2011:0027006N/AN/A30.3632(F), 0(C)30(F), -1(C)93%10CLRN/AN/AN/A26 FN/A8589
18/10/2010:5527007N/AN/A30.3632(F), 0(C)30(F), -1(C)93%10CLRN/AN/AN/A25 FN/A8584
18/10/2010:5027007N/AN/A30.3633(F), 1(C)30(F), -1(C)86%10CLRN/AN/AN/A27 FN/A8579
18/10/2010:4527007N/AN/A30.3633(F), 1(C)30(F), -1(C)86%10CLRN/AN/AN/A27 FN/A8574
18/10/2010:4027006N/AN/A30.3535(F), 2(C)32(F), 0(C)87%10CLRN/AN/AN/A30 FN/A8569
18/10/2010:3528007N/AN/A30.3535(F), 2(C)32(F), 0(C)87%10CLRN/AN/AN/A29 FN/A8564
18/10/2010:3028008N/AN/A30.3535(F), 2(C)32(F), 0(C)87%10CLRN/AN/AN/A28 FN/A8559
18/10/2010:2528007N/AN/A30.3535(F), 2(C)32(F), 0(C)87%10CLRN/AN/AN/A29 FN/A8554
18/10/2010:2028008N/AN/A30.3535(F), 2(C)31(F), -1(C)80%10CLRN/AN/AN/A28 FN/A8549
18/10/2010:1528008N/AN/A30.3535(F), 2(C)31(F), -1(C)80%10CLRN/AN/AN/A28 FN/A8544
18/10/2010:1028008N/AN/A30.3535(F), 2(C)31(F), -1(C)80%10CLRN/AN/AN/A28 FN/A8539
18/10/2010:0528008N/AN/A30.3535(F), 2(C)31(F), -1(C)80%10CLRN/AN/AN/A28 FN/A8534
18/10/2010:0028008N/AN/A30.3535(F), 2(C)31(F), -1(C)80%10CLRN/AN/AN/A28 FN/A8529
18/10/2009:5528007N/AN/A30.3535(F), 2(C)31(F), -1(C)80%10CLRN/AN/AN/A29 FN/A8524
18/10/2009:5028007N/AN/A30.3535(F), 2(C)31(F), -1(C)80%10CLRN/AN/AN/A29 FN/A8519
18/10/2009:4528007N/AN/A30.3535(F), 2(C)31(F), -1(C)80%10CLRN/AN/AN/A29 FN/A8514
18/10/2009:4028007N/AN/A30.3535(F), 2(C)31(F), -1(C)80%10CLRN/AN/AN/A29 FN/A8509
18/10/2009:3528008N/AN/A30.3535(F), 2(C)31(F), -1(C)80%10CLRN/AN/AN/A28 FN/A8504
18/10/2009:3028007N/AN/A30.3535(F), 2(C)31(F), -1(C)80%10CLRN/AN/AN/A29 FN/A8499
18/10/2009:2528006N/AN/A30.3535(F), 2(C)31(F), -1(C)80%10CLRN/AN/AN/A30 FN/A8494
18/10/2009:2029006N/AN/A30.3535(F), 2(C)31(F), -1(C)80%10CLRN/AN/AN/A30 FN/A8489
18/10/2009:1529006N/AN/A30.3535(F), 2(C)32(F), 0(C)87%10CLRN/AN/AN/A30 FN/A8484
18/10/2009:1028006N/AN/A30.3535(F), 2(C)32(F), 0(C)87%10CLRN/AN/AN/A30 FN/A8479
18/10/2009:0528007N/AN/A30.3535(F), 2(C)32(F), 0(C)87%10CLRN/AN/AN/A29 FN/A8474
18/10/2009:0028007N/AN/A30.3535(F), 2(C)32(F), 0(C)87%10CLRN/AN/AN/A29 FN/A8469
18/10/2008:5528007N/AN/A30.3535(F), 2(C)32(F), 0(C)87%10CLRN/AN/AN/A29 FN/A8464
18/10/2008:5027007N/AN/A30.3535(F), 2(C)32(F), 0(C)87%10CLRN/AN/AN/A29 FN/A8459
18/10/2008:4528007N/AN/A30.3535(F), 2(C)32(F), 0(C)87%10CLRN/AN/AN/A29 FN/A8454
18/10/2008:4028007N/AN/A30.3534(F), 1(C)32(F), 0(C)93%10CLRN/AN/AN/A28 FN/A8449
18/10/2008:3528006N/AN/A30.3532(F), 0(C)30(F), -1(C)93%10CLRN/AN/AN/A26 FN/A8444
18/10/2008:3028005N/AN/A30.3532(F), 0(C)30(F), -1(C)93%10CLRN/AN/AN/A27 FN/A8439
18/10/2008:2528005N/AN/A30.3532(F), 0(C)30(F), -1(C)93%10CLRN/AN/AN/A27 FN/A8434
18/10/2008:2028004N/AN/A30.3533(F), 1(C)30(F), -1(C)86%10CLRN/AN/AN/A33 FN/A8429
18/10/2008:1528004N/AN/A30.3535(F), 2(C)32(F), 0(C)87%10CLRN/AN/AN/A35 FN/A8424
18/10/2008:1026004N/AN/A30.3535(F), 2(C)32(F), 0(C)87%10CLRN/AN/AN/A35 FN/A8419
18/10/2008:0500000N/AN/A30.3435(F), 2(C)31(F), -1(C)80%10CLRN/AN/AN/A35 FN/A8414
18/10/2008:0000000N/AN/A30.3536(F), 2(C)32(F), 0(C)87%10CLRN/AN/AN/A36 FN/A8409
18/10/2007:5527003N/AN/A30.3436(F), 2(C)32(F), 0(C)87%10CLRN/AN/AN/A36 FN/A8404
18/10/2007:5000000N/AN/A30.3536(F), 2(C)32(F), 0(C)87%10CLRN/AN/AN/A36 FN/A8399
18/10/2007:4530003N/AN/A30.3535(F), 2(C)32(F), 0(C)87%10CLRN/AN/AN/A35 FN/A8394
18/10/2007:4030003N/AN/A30.3535(F), 2(C)31(F), -1(C)80%10CLRN/AN/AN/A35 FN/A8389
18/10/2007:3528003N/AN/A30.3536(F), 2(C)32(F), 0(C)87%10CLRN/AN/AN/A36 FN/A8384
18/10/2007:3000000N/AN/A30.3437(F), 3(C)33(F), 1(C)87%10CLRN/AN/AN/A37 FN/A8379
18/10/2007:2500000N/AN/A30.3437(F), 3(C)33(F), 1(C)87%10CLRN/AN/AN/A37 FN/A8374
18/10/2007:2000000N/AN/A30.3437(F), 3(C)33(F), 1(C)87%10CLRN/AN/AN/A37 FN/A8369
18/10/2007:1500000N/AN/A30.3437(F), 3(C)33(F), 1(C)87%10CLRN/AN/AN/A37 FN/A8364
18/10/2007:1000000N/AN/A30.3537(F), 3(C)32(F), 0(C)81%10CLRN/AN/AN/A37 FN/A8359
18/10/2007:0532003N/AN/A30.3437(F), 3(C)32(F), 0(C)81%10CLRN/AN/AN/A37 FN/A8354
18/10/2007:0032004N/AN/A30.3437(F), 3(C)32(F), 0(C)81%10CLRN/AN/AN/A37 FN/A8349
18/10/2006:5533004N/AN/A30.3437(F), 3(C)32(F), 0(C)81%10CLRN/AN/AN/A37 FN/A8344
18/10/2006:5034004N/AN/A30.3438(F), 3(C)33(F), 1(C)87%10CLRN/AN/AN/A38 FN/A8339
18/10/2006:4533003N/AN/A30.3438(F), 3(C)33(F), 1(C)87%10CLRN/AN/AN/A38 FN/A8334
18/10/2006:4033004N/AN/A30.3438(F), 3(C)33(F), 1(C)87%10CLRN/AN/AN/A38 FN/A8329
18/10/2006:3533003N/AN/A30.3438(F), 3(C)33(F), 1(C)87%10CLRN/AN/AN/A38 FN/A8324
18/10/2006:3000000N/AN/A30.3438(F), 3(C)33(F), 1(C)87%10CLRN/AN/AN/A38 FN/A8319
18/10/2006:2534003N/AN/A30.3438(F), 3(C)33(F), 1(C)87%10CLRN/AN/AN/A38 FN/A8314
18/10/2006:2033003N/AN/A30.3438(F), 3(C)33(F), 1(C)87%10CLRN/AN/AN/A38 FN/A8309
18/10/2006:1533003N/AN/A30.3438(F), 3(C)33(F), 1(C)87%10CLRN/AN/AN/A38 FN/A8304
18/10/2006:1034004N/AN/A30.3439(F), 4(C)33(F), 1(C)81%10CLRN/AN/AN/A39 FN/A8299
18/10/2006:0533005N/AN/A30.3439(F), 4(C)33(F), 1(C)81%10CLRN/AN/AN/A35 FN/A8294
18/10/2006:0033005N/AN/A30.3339(F), 4(C)33(F), 1(C)81%10CLRN/AN/AN/A35 FN/A8289
18/10/2005:5533005N/AN/A30.3339(F), 4(C)34(F), 1(C)81%10CLRN/AN/AN/A35 FN/A8284
18/10/2005:5033006N/AN/A30.3339(F), 4(C)34(F), 1(C)81%10CLRN/AN/AN/A35 FN/A8279
18/10/2005:4532006N/AN/A30.3339(F), 4(C)34(F), 1(C)81%10CLRN/AN/AN/A35 FN/A8274
18/10/2005:4033006N/AN/A30.3339(F), 4(C)34(F), 1(C)81%10CLRN/AN/AN/A35 FN/A8269
18/10/2005:3533005N/AN/A30.3339(F), 4(C)34(F), 1(C)81%10CLRN/AN/AN/A35 FN/A8264
18/10/2005:3034006N/AN/A30.3239(F), 4(C)34(F), 1(C)81%10CLRN/AN/AN/A35 FN/A8259
18/10/2005:2533006N/AN/A30.3239(F), 4(C)34(F), 1(C)81%10CLRN/AN/AN/A35 FN/A8254
18/10/2005:2033006N/AN/A30.3239(F), 4(C)34(F), 1(C)81%10CLRN/AN/AN/A35 FN/A8249
18/10/2005:1534006N/AN/A30.3240(F), 4(C)34(F), 1(C)81%10CLRN/AN/AN/A36 FN/A8244
18/10/2005:1034007N/AN/A30.3240(F), 4(C)34(F), 1(C)81%10CLRN/AN/AN/A35 FN/A8239
18/10/2005:0534007N/AN/A30.3240(F), 4(C)34(F), 1(C)81%10CLRN/AN/AN/A35 FN/A8234
18/10/2005:0034008N/AN/A30.3141(F), 5(C)35(F), 2(C)81%10CLRN/AN/AN/A36 FN/A8229
18/10/2004:5534007N/AN/A30.3142(F), 6(C)36(F), 2(C)75%10CLRN/AN/AN/A38 FN/A8224
18/10/2004:5034007N/AN/A30.3144(F), 7(C)37(F), 3(C)76%10CLRN/AN/AN/A40 FN/A8219
18/10/2004:4535008N/AN/A30.3145(F), 7(C)37(F), 3(C)76%10CLRN/AN/AN/A41 FN/A8214
18/10/2004:4035009N/AN/A30.3144(F), 7(C)37(F), 3(C)76%10CLRN/AN/AN/A39 FN/A8209
18/10/2004:3535009N/AN/A30.3042(F), 6(C)36(F), 2(C)75%10CLRN/AN/AN/A37 FN/A8204
18/10/2004:3035008N/AN/A30.3042(F), 6(C)37(F), 3(C)81%10CLRN/AN/AN/A37 FN/A8199
18/10/2004:2535008N/AN/A30.3042(F), 6(C)37(F), 3(C)81%10CLRN/AN/AN/A37 FN/A8194
18/10/2004:2035008N/AN/A30.3042(F), 6(C)37(F), 3(C)81%10CLRN/AN/AN/A37 FN/A8189
18/10/2004:1535008N/AN/A30.3042(F), 6(C)37(F), 3(C)81%10CLRN/AN/AN/A37 FN/A8184
18/10/2004:1035008N/AN/A30.3042(F), 6(C)36(F), 2(C)75%10CLRN/AN/AN/A37 FN/A8179
18/10/2004:0535008N/AN/A30.3042(F), 6(C)36(F), 2(C)75%10CLRN/AN/AN/A37 FN/A8174
18/10/2004:0034008N/AN/A30.3042(F), 6(C)37(F), 3(C)81%10CLRN/AN/AN/A37 FN/A8169
18/10/2003:5534008N/AN/A30.3042(F), 6(C)37(F), 3(C)81%10CLRN/AN/AN/A37 FN/A8164
18/10/2003:5034008N/AN/A30.3042(F), 6(C)37(F), 3(C)81%10CLRN/AN/AN/A37 FN/A8159
18/10/2003:4534008N/AN/A30.3042(F), 6(C)37(F), 3(C)81%10CLRN/AN/AN/A37 FN/A8154
18/10/2003:4034008N/AN/A30.2942(F), 6(C)37(F), 3(C)81%10CLRN/AN/AN/A37 FN/A8149
18/10/2003:3534008N/AN/A30.2942(F), 6(C)37(F), 3(C)81%10CLRN/AN/AN/A37 FN/A8144
18/10/2003:3034008N/AN/A30.2943(F), 6(C)37(F), 3(C)81%10CLRN/AN/AN/A38 FN/A8139
18/10/2003:2535008N/AN/A30.2945(F), 7(C)39(F), 4(C)81%10CLRN/AN/AN/A41 FN/A8134
18/10/2003:2034008N/AN/A30.2945(F), 7(C)39(F), 4(C)81%10CLRN/AN/AN/A41 FN/A8129
18/10/2003:1534008N/AN/A30.2845(F), 7(C)38(F), 3(C)76%10CLRN/AN/AN/A41 FN/A8124
18/10/2003:1034008N/AN/A30.2845(F), 7(C)38(F), 3(C)76%10CLRN/AN/AN/A41 FN/A8119
18/10/2003:0534007N/AN/A30.2845(F), 7(C)38(F), 3(C)76%10CLRN/AN/AN/A41 FN/A8114
18/10/2003:0034007N/AN/A30.2845(F), 7(C)38(F), 3(C)76%10CLRN/AN/AN/A41 FN/A8109
18/10/2002:5534007N/AN/A30.2845(F), 7(C)37(F), 3(C)76%10CLRN/AN/AN/A41 FN/A8104
18/10/2002:5034007N/AN/A30.2845(F), 7(C)38(F), 3(C)76%10CLRN/AN/AN/A41 FN/A8099
18/10/2002:4534007N/AN/A30.2745(F), 7(C)38(F), 3(C)76%10CLRN/AN/AN/A41 FN/A8094
18/10/2002:4034008N/AN/A30.2645(F), 7(C)37(F), 3(C)76%10CLRN/AN/AN/A41 FN/A8089
18/10/2002:3534007N/AN/A30.2645(F), 7(C)37(F), 3(C)76%10CLRN/AN/AN/A41 FN/A8084
18/10/2002:3034008N/AN/A30.2645(F), 7(C)37(F), 3(C)76%10CLRN/AN/AN/A41 FN/A8079
18/10/2002:2534008N/AN/A30.2645(F), 7(C)37(F), 3(C)76%10CLRN/AN/AN/A41 FN/A8074
18/10/2002:2034008N/AN/A30.2646(F), 8(C)38(F), 3(C)71%10CLRN/AN/AN/A42 FN/A8069
18/10/2002:1534008N/AN/A30.2647(F), 8(C)38(F), 3(C)71%10CLRN/AN/AN/A43 FN/A8064
18/10/2002:1034008N/AN/A30.2647(F), 8(C)38(F), 3(C)71%10CLRN/AN/AN/A43 FN/A8059
18/10/2002:0534007N/AN/A30.2647(F), 8(C)38(F), 3(C)71%10CLRN/AN/AN/A44 FN/A8054
18/10/2002:0034007N/AN/A30.2647(F), 8(C)38(F), 3(C)71%10CLRN/AN/AN/A44 FN/A8049
18/10/2001:5534007N/AN/A30.2649(F), 9(C)39(F), 4(C)71%10CLRN/AN/AN/A46 FN/A8044
18/10/2001:5034007N/AN/A30.2650(F), 10(C)39(F), 4(C)66%10CLRN/AN/AN/A47 FN/A8039
18/10/2001:4534008N/AN/A30.2550(F), 10(C)39(F), 4(C)66%10CLRN/AN/AN/A47 FN/A8034
18/10/2001:4033008N/AN/A30.2550(F), 10(C)39(F), 4(C)66%10CLRN/AN/AN/A47 FN/A8029
18/10/2001:3533007N/AN/A30.2550(F), 10(C)39(F), 4(C)66%10CLRN/AN/AN/A47 FN/A8024
18/10/2001:3033007N/AN/A30.2550(F), 10(C)39(F), 4(C)66%10CLRN/AN/AN/A47 FN/A8019
18/10/2001:2533006N/AN/A30.2550(F), 10(C)39(F), 4(C)66%10CLRN/AN/AN/A48 FN/A8014
18/10/2001:2034007N/AN/A30.2450(F), 10(C)39(F), 4(C)66%10CLRN/AN/AN/A47 FN/A8009
18/10/2001:1534006N/AN/A30.2450(F), 10(C)38(F), 3(C)62%10CLRN/AN/AN/A48 FN/A8004
18/10/2001:1034006N/AN/A30.2450(F), 10(C)38(F), 3(C)62%10CLRN/AN/AN/A48 FN/A7999
18/10/2001:0534006N/AN/A30.2450(F), 10(C)38(F), 3(C)62%10CLRN/AN/AN/A48 FN/A7994
18/10/2001:0034007N/AN/A30.2350(F), 10(C)38(F), 3(C)62%10CLRN/AN/AN/A47 FN/A7989
18/10/2000:5534006N/AN/A30.2350(F), 10(C)38(F), 3(C)62%10CLRN/AN/AN/A48 FN/A7984
18/10/2000:5035007N/AN/A30.2351(F), 11(C)39(F), 4(C)62%10CLRN/AN/AN/A48 FN/A7979
18/10/2000:4535008N/AN/A30.2252(F), 11(C)39(F), 4(C)62%10CLRN/AN/AN/A49 FN/A7974
18/10/2000:4035008N/AN/A30.2252(F), 11(C)38(F), 3(C)58%10CLRN/AN/AN/A49 FN/A7969
18/10/2000:3534007N/AN/A30.2252(F), 11(C)38(F), 3(C)58%10CLRN/AN/AN/A50 FN/A7964
18/10/2000:3034007N/AN/A30.2153(F), 12(C)38(F), 3(C)54%10CLRN/AN/AN/A51 FN/A7959
18/10/2000:2534007N/AN/A30.2154(F), 12(C)38(F), 3(C)54%10CLRN/AN/AN/A52 FN/A7954
18/10/2000:2034008N/AN/A30.2155(F), 13(C)38(F), 3(C)51%10CLRN/AN/AN/A53 FN/A7949
18/10/2000:1534008N/AN/A30.2055(F), 13(C)38(F), 3(C)51%10CLRN/AN/AN/A53 FN/A7944
18/10/2000:1034008N/AN/A30.2055(F), 13(C)38(F), 3(C)51%10CLRN/AN/AN/A53 FN/A7939
18/10/2000:0534007N/AN/A30.2056(F), 13(C)37(F), 3(C)51%10CLRN/AN/AN/A54 FN/A7934
18/10/2000:0035007N/AN/A30.2058(F), 14(C)36(F), 2(C)44%10CLRN/AN/AN/A57 FN/A7929
18/10/1923:5535008N/AN/A30.1959(F), 15(C)37(F), 3(C)44%10CLRN/AN/AN/A58 FN/A7924
18/10/1923:5035008N/AN/A30.1961(F), 16(C)37(F), 3(C)42%10CLRN/AN/AN/A60 FN/A7919
18/10/1923:4535008N/AN/A30.1963(F), 17(C)38(F), 3(C)39%10CLRN/AN/AN/A63 FN/A7914
18/10/1923:4035008N/AN/A30.1965(F), 18(C)39(F), 4(C)39%10CLRN/AN/AN/A65 FN/A7909
18/10/1923:3535008N/AN/A30.1965(F), 18(C)39(F), 4(C)39%10CLRN/AN/AN/A65 FN/A7904
18/10/1923:3035008N/AN/A30.1865(F), 18(C)38(F), 3(C)37%10CLRN/AN/AN/A65 FN/A7899
18/10/1923:2535008N/AN/A30.1865(F), 18(C)38(F), 3(C)37%10CLRN/AN/AN/A65 FN/A7894
18/10/1923:2035008N/AN/A30.1865(F), 18(C)37(F), 3(C)37%10CLRN/AN/AN/A65 FN/A7889
18/10/1923:1534008N/AN/A30.1866(F), 19(C)37(F), 3(C)35%10CLRN/AN/AN/A66 FN/A7884
18/10/1923:1034008N/AN/A30.1867(F), 19(C)37(F), 3(C)35%10CLRN/AN/AN/A67 FN/A7879
18/10/1923:0534010N/AN/A30.1867(F), 19(C)37(F), 3(C)35%10CLRN/AN/AN/A67 FN/A7874
18/10/1923:0034010N/AN/A30.1768(F), 20(C)37(F), 3(C)32%10CLRN/AN/A410068 FN/A7869
18/10/1922:5534011N/AN/A30.1770(F), 21(C)38(F), 3(C)31%10CLRN/AN/A420071 FN/A7864
18/10/1922:5034010N/AN/A30.1770(F), 21(C)37(F), 3(C)31%10CLRN/AN/A420071 FN/A7859
18/10/1922:4535013N/AN/A30.1770(F), 21(C)38(F), 3(C)31%10CLRN/AN/A420070 FN/A7854
18/10/1922:403401215N/A30.1670(F), 21(C)37(F), 3(C)31%10CLRN/AN/A420071 FN/A7849
18/10/1922:3534013N/AN/A30.1670(F), 21(C)36(F), 2(C)28%10CLRN/AN/A420070 FN/A7844
18/10/1922:3033012N/AN/A30.1670(F), 21(C)36(F), 2(C)28%10CLRN/AN/A420071 FN/A7839
18/10/1922:2534013N/AN/A30.1670(F), 21(C)36(F), 2(C)28%10CLRN/AN/A420070 FN/A7834
18/10/1922:2033012N/AN/A30.1670(F), 21(C)36(F), 2(C)28%10CLRN/AN/A420071 FN/A7829
18/10/1922:1533011N/AN/A30.1670(F), 21(C)35(F), 2(C)28%10CLRN/AN/A420071 FN/A7824
18/10/1922:103301217N/A30.1670(F), 21(C)35(F), 2(C)28%10CLRN/AN/A420071 FN/A7819
18/10/1922:053301317N/A30.1670(F), 21(C)36(F), 2(C)28%10CLRN/AN/A420070 FN/A7814
18/10/1922:0033009N/AN/A30.1670(F), 21(C)36(F), 2(C)28%10CLRN/AN/A420071 FN/A7809
18/10/1921:5533012N/AN/A30.1670(F), 21(C)36(F), 2(C)28%10CLRN/AN/A420071 FN/A7804
18/10/1921:5033011N/AN/A30.1670(F), 21(C)36(F), 2(C)28%10CLRN/AN/A420071 FN/A7799
18/10/1921:4534011N/AN/A30.1670(F), 21(C)36(F), 2(C)28%10CLRN/AN/A420071 FN/A7794
18/10/1921:403301216N/A30.1670(F), 21(C)36(F), 2(C)28%10CLRN/AN/A420071 FN/A7789
18/10/1921:353401217N/A30.1670(F), 21(C)35(F), 2(C)28%10CLRN/AN/A420071 FN/A7784
18/10/1921:303201317N/A30.1671(F), 22(C)37(F), 3(C)29%10CLRN/AN/A4300N/A76 F7779
18/10/1921:253401217N/A30.1670(F), 21(C)35(F), 2(C)28%10CLRN/AN/A420071 FN/A7774
18/10/1921:203201216N/A30.1670(F), 21(C)36(F), 2(C)28%10CLRN/AN/A420071 FN/A7769
18/10/1921:153301418N/A30.1570(F), 21(C)36(F), 2(C)28%10CLRN/AN/A420070 FN/A7764
18/10/1921:103301318N/A30.1671(F), 22(C)37(F), 3(C)29%10CLRN/AN/A4300N/A76 F7759
18/10/1921:053401119N/A30.1571(F), 22(C)37(F), 3(C)29%10CLRN/AN/A4300N/A76 F7754
18/10/1921:003200919N/A30.1671(F), 22(C)37(F), 3(C)29%10CLRN/AN/A4300N/A76 F7749
18/10/1920:553301319N/A30.1571(F), 22(C)37(F), 3(C)29%10CLRN/AN/A4300N/A76 F7744
18/10/1920:5033012N/AN/A30.1570(F), 21(C)36(F), 2(C)28%10CLRN/AN/A430071 FN/A7739
18/10/1920:453301114N/A30.1571(F), 22(C)37(F), 3(C)29%10CLRN/AN/A4300N/A76 F7734
18/10/1920:4033012N/AN/A30.1572(F), 22(C)39(F), 4(C)31%10CLRN/AN/A4400N/A76 F7729
18/10/1920:353400915N/A30.1571(F), 22(C)39(F), 4(C)31%10CLRN/AN/A4300N/A76 F7724
18/10/1920:303501015N/A30.1571(F), 22(C)39(F), 4(C)31%10CLRN/AN/A4300N/A76 F7719
18/10/1920:253501115N/A30.1671(F), 22(C)39(F), 4(C)31%10CLRN/AN/A4300N/A76 F7714
18/10/1920:203401118300V01030.1570(F), 21(C)39(F), 4(C)33%10CLRN/AN/A420071 FN/A7709
18/10/1920:153401218N/A30.1670(F), 21(C)39(F), 4(C)33%10CLRN/AN/A420071 FN/A7704
18/10/1920:1035009N/AN/A30.1670(F), 21(C)39(F), 4(C)33%10CLRN/AN/A420071 FN/A7699
18/10/1920:0534012N/AN/A30.1670(F), 21(C)40(F), 4(C)33%10CLRN/AN/A420071 FN/A7694
18/10/1920:0033009N/A290V35030.1670(F), 21(C)40(F), 4(C)33%10CLRN/AN/A420071 FN/A7689
18/10/1919:5532007N/AN/A30.1670(F), 21(C)41(F), 5(C)35%10CLRN/AN/A420071 FN/A7684
18/10/1919:5031010N/AN/A30.1670(F), 21(C)41(F), 5(C)35%10CLRN/AN/A420071 FN/A7679
18/10/1919:453300514N/A30.1670(F), 21(C)42(F), 6(C)38%10CLRN/AN/A420072 FN/A7674
18/10/1919:403201014N/A30.1670(F), 21(C)42(F), 6(C)38%10CLRN/AN/A420071 FN/A7669
18/10/1919:3531008N/AN/A30.1670(F), 21(C)42(F), 6(C)38%10CLRN/AN/A420071 FN/A7664
18/10/1919:3034005N/AN/A30.1770(F), 21(C)42(F), 6(C)38%10CLRN/AN/A420072 FN/A7659
18/10/1919:2534011N/AN/A30.1770(F), 21(C)43(F), 6(C)38%10CLRN/AN/A420071 FN/A7654
18/10/1919:2034007N/AN/A30.1770(F), 21(C)43(F), 6(C)38%10CLRN/AN/A420071 FN/A7649
18/10/1919:1531005N/AN/A30.1770(F), 21(C)43(F), 6(C)38%10CLRN/AN/A420072 FN/A7644
18/10/1919:1034011N/AN/A30.1770(F), 21(C)42(F), 6(C)38%10CLRN/AN/A420071 FN/A7639
18/10/1919:053401015N/A30.1870(F), 21(C)43(F), 6(C)38%10CLRN/AN/A420071 FN/A7634
18/10/1919:003201115N/A30.1870(F), 21(C)43(F), 6(C)38%10CLRN/AN/A420071 FN/A7629
18/10/1918:5534009N/AN/A30.1869(F), 21(C)42(F), 6(C)38%10CLRN/AN/A420070 FN/A7624
18/10/1918:5032010N/AN/A30.1869(F), 21(C)43(F), 6(C)38%10CLRN/AN/A420070 FN/A7619
18/10/1918:453300815N/A30.1967(F), 19(C)41(F), 5(C)40%10CLRN/AN/AN/A67 FN/A7614
18/10/1918:403201115N/A30.1967(F), 19(C)42(F), 6(C)43%10CLRN/AN/AN/A67 FN/A7609
18/10/1918:353401115N/A30.1967(F), 19(C)42(F), 6(C)43%10CLRN/AN/AN/A67 FN/A7604
18/10/1918:3035011N/AN/A30.1867(F), 19(C)42(F), 6(C)43%10CLRN/AN/AN/A67 FN/A7599
18/10/1918:2534010N/AN/A30.1966(F), 19(C)41(F), 5(C)40%10CLRN/AN/AN/A66 FN/A7594
18/10/1918:2035009N/AN/A30.1965(F), 18(C)41(F), 5(C)42%10CLRN/AN/AN/A65 FN/A7589
18/10/1918:1535010N/AN/A30.1965(F), 18(C)44(F), 7(C)49%10CLRN/AN/AN/A65 FN/A7584
18/10/1918:1032008N/AN/A30.1965(F), 18(C)44(F), 7(C)49%10CLRN/AN/AN/A65 FN/A7579
18/10/1918:053401114N/A30.1965(F), 18(C)45(F), 7(C)49%10CLRN/AN/AN/A64 FN/A7574
18/10/1918:003201014N/A30.1965(F), 18(C)46(F), 8(C)52%10CLRN/AN/AN/A65 FN/A7569
18/10/1917:5534010N/AN/A30.2065(F), 18(C)46(F), 8(C)52%10CLRN/AN/AN/A65 FN/A7564
18/10/1917:5032010N/AN/A30.1965(F), 18(C)46(F), 8(C)52%10CLRN/AN/AN/A65 FN/A7559
18/10/1917:4534011N/AN/A30.1963(F), 17(C)45(F), 7(C)52%10CLRN/AN/AN/A62 FN/A7554
18/10/1917:4033011N/AN/A30.1962(F), 17(C)44(F), 7(C)52%10CLRN/AN/AN/A61 FN/A7549
18/10/1917:3532011N/AN/A30.2062(F), 17(C)44(F), 7(C)52%10CLRN/AN/AN/A61 FN/A7544
18/10/1917:3033010N/AN/A30.2060(F), 16(C)43(F), 6(C)51%10CLRN/AN/AN/A58 FN/A7539
18/10/1917:2533010N/AN/A30.1960(F), 16(C)42(F), 6(C)51%10CLRN/AN/AN/A58 FN/A7534
18/10/1917:2032011N/AN/A30.2060(F), 16(C)42(F), 6(C)51%10CLRN/AN/AN/A58 FN/A7529
18/10/1917:1532012N/AN/A30.1960(F), 16(C)42(F), 6(C)51%10CLRN/AN/AN/A58 FN/A7524
18/10/1917:1032010N/AN/A30.2059(F), 15(C)42(F), 6(C)55%10CLRN/AN/AN/A57 FN/A7519
18/10/1917:0533009N/AN/A30.2058(F), 14(C)41(F), 5(C)55%10CLRN/AN/AN/A56 FN/A7514
18/10/1917:0033011N/AN/A30.2058(F), 14(C)41(F), 5(C)55%10CLRN/AN/AN/A56 FN/A7509
18/10/1916:553201119N/A30.1958(F), 14(C)41(F), 5(C)55%10CLRN/AN/AN/A56 FN/A7504
18/10/1916:503301219N/A30.1958(F), 14(C)40(F), 4(C)51%10CLRN/AN/AN/A55 FN/A7499
18/10/1916:453201417N/A30.1958(F), 14(C)41(F), 5(C)55%10CLRN/AN/AN/A55 FN/A7494
18/10/1916:4031011N/AN/A30.1957(F), 14(C)40(F), 4(C)51%10CLRN/AN/AN/A54 FN/A7489
18/10/1916:3533014N/AN/A30.1957(F), 14(C)41(F), 5(C)55%10CLRN/AN/AN/A54 FN/A7484
18/10/1916:3031013N/AN/A30.1957(F), 14(C)41(F), 5(C)55%10CLRN/AN/AN/A54 FN/A7479
18/10/1916:253101419N/A30.1957(F), 14(C)41(F), 5(C)55%10CLRN/AN/AN/A54 FN/A7474
18/10/1916:203101219N/A30.1957(F), 14(C)41(F), 5(C)55%10CLRN/AN/AN/A54 FN/A7469
18/10/1916:1530013N/AN/A30.1956(F), 13(C)42(F), 6(C)62%10CLRN/AN/AN/A53 FN/A7464
18/10/1916:103001318N/A30.1956(F), 13(C)42(F), 6(C)62%10CLRN/AN/AN/A53 FN/A7459
18/10/1916:053001318N/A30.1955(F), 13(C)42(F), 6(C)62%10CLRN/AN/AN/A51 FN/A7454
18/10/1916:003001318N/A30.1955(F), 13(C)43(F), 6(C)62%10CLRN/AN/AN/A51 FN/A7449
18/10/1915:552901218N/A30.1955(F), 13(C)43(F), 6(C)62%10CLRN/AN/AN/A52 FN/A7444
18/10/1915:503001118N/A30.1954(F), 12(C)43(F), 6(C)67%10CLRN/AN/AN/A51 FN/A7439
18/10/1915:4530011N/AN/A30.1952(F), 11(C)42(F), 6(C)71%10CLRN/AN/AN/A48 FN/A7434
18/10/1915:4029011N/AN/A30.1952(F), 11(C)43(F), 6(C)71%10CLRN/AN/AN/A48 FN/A7429
18/10/1915:352901116N/A30.1952(F), 11(C)44(F), 7(C)76%10CLRN/AN/AN/A48 FN/A7424
18/10/1915:302900916N/A30.1951(F), 11(C)43(F), 6(C)71%10CLRN/AN/AN/A48 FN/A7419
18/10/1915:2529010N/AN/A30.1950(F), 10(C)42(F), 6(C)76%10CLRN/AN/AN/A46 FN/A7414
18/10/1915:202901115N/A30.1950(F), 10(C)43(F), 6(C)76%10CLRN/AN/AN/A46 FN/A7409
18/10/1915:152901215N/A30.1950(F), 10(C)44(F), 7(C)82%10CLRN/AN/AN/A45 FN/A7404
18/10/1915:1030009N/AN/A30.1948(F), 9(C)43(F), 6(C)81%10CLRN/AN/AN/A44 FN/A7399
18/10/1915:053001117N/A30.1947(F), 8(C)42(F), 6(C)87%10CLRN/AN/AN/A42 FN/A7394
18/10/1915:003001317N/A30.1946(F), 8(C)42(F), 6(C)87%10CLRN/AN/AN/A40 FN/A7389
18/10/1914:5530012N/AN/A30.1845(F), 7(C)41(F), 5(C)87%10CLRN/AN/AN/A39 FN/A7384
18/10/1914:5030011N/AN/A30.1845(F), 7(C)42(F), 6(C)93%10CLRN/AN/AN/A39 FN/A7379
18/10/1914:453001116N/A30.1845(F), 7(C)42(F), 6(C)93%10CLRN/AN/AN/A39 FN/A7374
18/10/1914:403001116N/A30.1845(F), 7(C)42(F), 6(C)93%10CLRN/AN/AN/A39 FN/A7369
18/10/1914:352901014N/A30.1745(F), 7(C)42(F), 6(C)93%10CLRN/AN/AN/A40 FN/A7364
18/10/1914:3030009N/AN/A30.1745(F), 7(C)42(F), 6(C)93%10CLRN/AN/AN/A40 FN/A7359
18/10/1914:2529010N/AN/A30.1743(F), 6(C)41(F), 5(C)93%10CLRN/AN/AN/A37 FN/A7354
18/10/1914:2029010N/AN/A30.1742(F), 6(C)40(F), 4(C)87%10CLRN/AN/AN/A36 FN/A7349
18/10/1914:1529009N/AN/A30.1642(F), 6(C)40(F), 4(C)87%10CLRN/AN/AN/A37 FN/A7344
18/10/1914:1029012N/AN/A30.1642(F), 6(C)40(F), 4(C)87%10CLRN/AN/AN/A35 FN/A7339
18/10/1914:0529011N/AN/A30.1640(F), 4(C)39(F), 4(C)100%10CLRN/AN/AN/A33 FN/A7334
18/10/1914:0029010N/AN/A30.1640(F), 4(C)38(F), 3(C)93%10CLRN/AN/AN/A34 FN/A7329
18/10/1913:5529010N/AN/A30.1639(F), 4(C)38(F), 3(C)93%10CLRN/AN/AN/A32 FN/A7324
18/10/1913:5029009N/AN/A30.1539(F), 4(C)38(F), 3(C)93%10CLRN/AN/AN/A33 FN/A7319
18/10/1913:4529009N/AN/A30.1538(F), 3(C)37(F), 3(C)100%10CLRN/AN/AN/A32 FN/A7314
18/10/1913:4029010N/AN/A30.1437(F), 3(C)37(F), 3(C)100%10CLRN/AN/AN/A30 FN/A7309
18/10/1913:3529010N/AN/A30.1437(F), 3(C)36(F), 2(C)93%10CLRN/AN/AN/A30 FN/A7304
18/10/1913:3028009N/AN/A30.1437(F), 3(C)36(F), 2(C)93%10CLRN/AN/AN/A30 FN/A7299
18/10/1913:2528008N/AN/A30.1437(F), 3(C)36(F), 2(C)93%10CLRN/AN/AN/A31 FN/A7294
18/10/1913:2028008N/AN/A30.1437(F), 3(C)36(F), 2(C)93%10CLRN/AN/AN/A31 FN/A7289
18/10/1913:1528009N/AN/A30.1337(F), 3(C)36(F), 2(C)93%10CLRN/AN/AN/A30 FN/A7284
18/10/1913:1028010N/AN/A30.1337(F), 3(C)36(F), 2(C)93%10CLRN/AN/AN/A30 FN/A7279
18/10/1913:0529010N/AN/A30.1337(F), 3(C)36(F), 2(C)93%10CLRN/AN/AN/A30 FN/A7274
18/10/1913:0029010N/AN/A30.1336(F), 2(C)36(F), 2(C)100%10CLRN/AN/AN/A29 FN/A7269
18/10/1912:5529011N/AN/A30.1336(F), 2(C)36(F), 2(C)100%10CLRN/AN/AN/A28 FN/A7264
18/10/1912:5028010N/AN/A30.1337(F), 3(C)36(F), 2(C)93%10CLRN/AN/AN/A30 FN/A7259
18/10/1912:4528009N/AN/A30.1337(F), 3(C)36(F), 2(C)93%10CLRN/AN/AN/A30 FN/A7254
18/10/1912:4028008N/AN/A30.1336(F), 2(C)36(F), 2(C)100%10CLRN/AN/AN/A30 FN/A7249
18/10/1912:3527009N/AN/A30.1336(F), 2(C)36(F), 2(C)100%10CLRN/AN/AN/A29 FN/A7244
18/10/1912:3027009N/AN/A30.1336(F), 2(C)36(F), 2(C)100%10CLRN/AN/AN/A29 FN/A7239
18/10/1912:2527009N/AN/A30.1336(F), 2(C)36(F), 2(C)100%10CLRN/AN/AN/A29 FN/A7234
18/10/1912:2027009N/AN/A30.1336(F), 2(C)36(F), 2(C)100%10CLRN/AN/AN/A29 FN/A7229
18/10/1912:1527008N/AN/A30.1336(F), 2(C)36(F), 2(C)100%10CLRN/AN/AN/A30 FN/A7224
18/10/1912:1027008N/AN/A30.1336(F), 2(C)35(F), 2(C)100%10CLRN/AN/AN/A30 FN/A7219
18/10/1912:0527007N/AN/A30.1235(F), 2(C)35(F), 2(C)100%10CLRN/AN/AN/A29 FN/A7214